Regional Weather Roundup
Issued by NWS

Home | Current Version | Previous Version | Text Only | Print | Product List | Glossary On
Versions: 1 2 3 4 5 6 7 8 9 10 11 12 13 14 15 16 17 18 19 20 21 22 23 24 25 26 27 28 29 30 31 32 33 34 35 36 37 38 39 40 41 42 43 44 45 46 47 48 49 50
000
ASUS44 KOUN 210510
RWROK

WEATHER ROUNDUP FOR OKLAHOMA
NATIONAL WEATHER SERVICE NORMAN OK
1200 AM CDT FRI JUL 21 2017

NOTE: "FAIR" INDICATES FEW OR NO CLOUDS BELOW 12,000 FEET WITH NO
      SIGNIFICANT WEATHER AND/OR OBSTRUCTIONS TO VISIBILITY.

OKZ001>007-009>012-014-015-017-210600-
NORTHWEST OKLAHOMA AND THE PANHANDLE

CITY           SKY/WX    TMP DP  RH WIND       PRES   REMARKS
GAGE           CLEAR     85  60  42 S16       30.00R
GUYMON         CLEAR     80  56  43 S10       30.01R
ENID/WOODRING  CLEAR     84  68  58 S9        29.96S
$$

OKZ016-021>023-033>039-044-045-210600-
SOUTHWEST OKLAHOMA

CITY           SKY/WX    TMP DP  RH WIND       PRES   REMARKS
LAWTON/REGL    CLEAR     86  68  54 SE9       30.00R
FREDERICK      CLEAR     87  67  51 SE14      29.97R HX  90
CLINTON        CLEAR     86  64  47 S18       30.02S
HOBART         CLEAR     87  65  47 S20       30.01R
ALTUS AFB      CLEAR     85  65  51 SE13      29.99R
$$

OKZ018>020-024>031-210600-
CENTRAL OKLAHOMA

CITY           SKY/WX    TMP DP  RH WIND       PRES   REMARKS
OKLAHOMA CITY  PTCLDY    84  69  60 S12       30.01R
OKC/WILEY POST CLEAR     86  70  58 S18       30.00S HX  90
OKC/TINKER AFB CLEAR     84  70  61 S13       30.01S
STILLWATER     CLEAR     86  69  56 S15       29.98S HX  90
GUTHRIE        CLEAR     86  70  58 S13G21    29.99R HX  90
$$

OKZ008-013-054>072-210600-
NORTHEAST OKLAHOMA

CITY           SKY/WX    TMP DP  RH WIND       PRES   REMARKS
TULSA          CLEAR     87  73  62 S14       29.97S HX  94
TULSA/JONES    CLEAR     81  72  74 CALM      29.99S
PONCA CITY     CLEAR     87  69  54 S12G17    29.97R HX  91
BARTLESVILLE   CLEAR     82  71  69 S5        29.99R
MUSKOGEE       CLEAR     79  75  87 S6        30.02R
$$

OKZ032-040>043-046>053-073>077-210600-
SOUTH CENTRAL/SOUTHEAST OKLAHOMA

CITY           SKY/WX    TMP DP  RH WIND       PRES   REMARKS
ARDMORE/DWNTWN CLEAR     82  68  61 S5        30.02S
MCALESTER      CLEAR     83  73  72 VRB5      30.03S
$$





USA.gov is the U.S. government's official web portal to all federal, state and local government web resources and services.